Regional Weather Roundup
Issued by NWS

Home | Current Version | Previous Version | Graphics & Text | Print | Product List | Glossary On
Versions: 1 2 3 4 5 6 7 8 9 10 11 12 13 14 15 16 17 18 19 20 21 22 23 24 25 26 27 28 29 30 31 32 33 34 35 36 37 38 39 40 41 42 43 44 45 46 47 48 49 50
000
ASUS44 KMEG 241100
RWRTN
TENNESSEE HOURLY STATE WEATHER ROUNDUP
NATIONAL WEATHER SERVICE MEMPHIS TN
500 AM CST MON NOV 24 2014

TNZ002-004-019-021-049-052-054-088>092-241200-
WEST TENNESSEE

CITY           SKY/WX    TMP DP  RH WIND       PRES   REMARKS
MEMPHIS INTL   CLOUDY    55  46  71 W14G26    29.62R
NWS MEMPHIS      N/A     55 N/A N/A MISG        N/A
JACKSON        CLOUDY    58  49  72 SW18G30   29.54R
DYERSBURG      CLOUDY    50  37  62 W17G28    29.57R
PARIS          CLOUDY    55  48  76 SW26      29.46R
LEXINGTON      CLOUDY    59  52  77 SW17      29.51R
SAVANNAH       CLOUDY    59  54  82 SW16      29.57R
$$

TNZ008-025-027-028-033-062-065-066-241200-
NORTH MIDDLE TENNESSEE

CITY           SKY/WX    TMP DP  RH WIND       PRES   REMARKS
NASHVILLE      PTCLDY    62  54  74 SW15G26   29.50S
CLARKSVILLE    MOCLDY    62  52  69 SW23G41   29.43R
COOKEVILLE     CLEAR     61  54  77 SW16      29.54S
CROSSVILLE     CLOUDY    60  52  74 S10G18    29.60S
$$

TNZ061-075-076-078-094-096-097-241200-
SOUTH MIDDLE TENNESSEE

CITY           SKY/WX    TMP DP  RH WIND       PRES   REMARKS
WINCHESTER     CLEAR     61  54  77 S16       29.60F
SHELBYVILLE    MOCLDY    61  55  82 S23G47    29.57R
$$

TNZ017-018-042-046-047-241200-
NORTHEAST TENNESSEE

CITY           SKY/WX    TMP DP  RH WIND       PRES   REMARKS
TRI CITIES     PTCLDY    48  47  96 CALM      29.64R
ELIZABETHTON   SUNNY     45  45 100 CALM      29.65S
$$

TNZ012-013-036-069-073-074-241200-
CENTRAL EAST TENNESSEE

CITY           SKY/WX    TMP DP  RH WIND       PRES   REMARKS
KNOXVILLE      CLOUDY    61  51  70 SW21G28   29.64R
OAK RIDGE      PTCLDY    62  53  72 S14G25    29.63F
GATLINBURG     SUNNY     61  46  59 VRB7      29.63S
$$

TNZ083-085-099-241200-
SOUTHEAST TENNESSEE

CITY           SKY/WX    TMP DP  RH WIND       PRES   REMARKS
CHATTANOOGA    MOCLDY    62  56  80 S10       29.66S
$$

SKY/WX REPORTED AS FAIR MEANS FEW OR NO CLOUDS BELOW
12 THOUSAND FEET.



USA.gov is the U.S. government's official web portal to all federal, state and local government web resources and services.